This demonstration page uses our WeatherBlox Daily Observations layout. Learn more.

41.55636, -103.73856

Hourly Observations for January 13, 2019

Temp ( °F °C ) Dew Point ( °F °C ) Humidity (%) Winds ( mph kmh ) Pressure ( in mb ) Visibility ( mi km ) Precip ( " mm )
12:58 am 00:58 Clear 32 -0.2 21 -5.9 66 66 Calm 30.34 1028 10 16.0934 N/A
1:58 am 01:58 Clear 31 -0.3 21 -5.9 66 66 W 3 6 30.36 1028 10 16.0934 N/A
2:58 am 02:58 Clear 23 -5.1 18 -7.7 82 82 W 10 17 30.37 1029 10 16.0934 N/A
3:58 am 03:58 Clear 23 -5.2 17 -8.3 79 79 W 9 15 30.38 1029 10 16.0934 N/A
5:58 am 05:58 Clear 22 -5.7 14 -9.8 73 73 W 9 15 30.38 1029 10 16.0934 N/A
6:58 am 06:58 Clear 22 -5.8 14 -9.8 74 74 W 7 11 30.35 1028 10 16.0934 N/A
7:58 am 07:58 Clear 21 -6.1 13 -10.3 72 72 W 9 15 30.34 1027 10 16.0934 N/A
8:58 am 08:58 Clear 22 -5.8 13 -10.4 70 70 W 8 13 30.35 1028 10 16.0934 N/A
9:58 am 09:58 Clear 22 -5.6 13 -10.5 69 69 W 7 11 30.35 1028 10 16.0934 N/A
10:58 am 10:58 Clear 22 -5.8 13 -10.8 68 68 W 9 15 30.34 1027 10 16.0934 N/A
11:58 am 11:58 Clear 22 -5.8 13 -10.7 69 69 W 8 13 30.35 1028 10 16.0934 N/A
12:58 pm 12:58 Clear 22 -5.8 12 -11.1 67 67 W 8 13 30.35 1028 10 16.0934 N/A
1:58 pm 13:58 Clear 23 -5.1 12 -10.9 64 64 W 10 17 30.35 1028 10 16.0934 N/A
2:58 pm 14:58 Sunny 25 -3.9 12 -11.3 57 57 WSW 8 13 30.38 1029 10 16.0934 N/A
3:58 pm 15:58 Sunny 28 -2.2 21 -5.9 76 76 SW 12 19 30.39 1029 10 16.0934 N/A
4:58 pm 16:58 Sunny 32 -0.2 23 -5.2 69 69 SW 9 15 30.38 1029 10 16.0934 N/A
5:58 pm 17:58 Sunny 33 0.8 23 -4.8 67 67 WSW 10 17 30.37 1028 10 16.0934 N/A
6:58 pm 18:58 Sunny 36 2.3 26 -3.5 66 66 W 9 15 30.34 1027 10 16.0934 N/A
7:58 pm 19:58 Sunny 37 3 25 -3.8 61 61 W 6 9 30.32 1027 10 16.0934 N/A
8:58 pm 20:58 Sunny 39 3.7 24 -4.2 57 57 WSW 6 9 30.3 1026 10 16.0934 N/A
9:58 pm 21:58 Sunny 40 4.2 22 -5.5 50 50 WSW 3 6 30.3 1026 10 16.0934 N/A
10:58 pm 22:58 Sunny 39 3.8 22 -5.8 50 50 Calm 30.3 1026 10 16.0934 N/A
11:58 pm 23:58 Clear 38 3.3 20 -6.6 49 49 Calm 30.31 1026 10 16.0934 N/A

Powered by AerisWeather